AMOS-3                  
1 32794U 08022A   19266.86909446 -.00000047  00000-0  00000-0 0  9999
2 32794   0.0176 148.7435 0001424  14.9860 147.4340  1.00272366 57723
SL-23 R/B               
1 33059U 08022B   19266.28680500 -.00000173  00000-0  00000-0 0  9997
2 33059   9.5370  48.4036 0543657   1.1222   9.9080  0.95534300 39488